RYR86DZ EBCI-LFMU

Flight info

Callsign RYR86DZ
Flight time 1h 13m
Altitude 35000
Route CIV Y50 REM B3 VATRI G40 TRO B373 MOU A27 MEN J27 AFRIC
Aircraft B738/M-SDE2E3FGHIRWXY/LB1

Departure

Time 2026-04-22 12:41
Airport Brussels South Charleroi Airport (EBCI)

Arrival

Time 2026-04-22 13:55
Airport Béziers Vias airport (LFMU)
Time Latitude Longitude Altitude Speed Heading
2026-04-22 12:06 50.46957 4.47401 623 ft 0 kts 335°
2026-04-22 12:26 50.46937 4.47414 624 ft 3 kts 336°
2026-04-22 12:27 50.46918 4.47435 607 ft 4 kts 291°
2026-04-22 12:27 50.46919 4.47472 625 ft 4 kts 246°
2026-04-22 12:27 50.46923 4.47487 621 ft 1 kts 245°
2026-04-22 12:27 50.46923 4.47488 621 ft 0 kts 245°
2026-04-22 12:33 50.46918 4.47469 625 ft 4 kts 245°
2026-04-22 12:33 50.46903 4.47417 625 ft 6 kts 245°
2026-04-22 12:33 50.46878 4.47337 619 ft 7 kts 237°
2026-04-22 12:34 50.46833 4.47329 612 ft 8 kts 159°
2026-04-22 12:34 50.46765 4.47324 621 ft 15 kts 221°
2026-04-22 12:34 50.46708 4.47148 622 ft 20 kts 245°
2026-04-22 12:34 50.46645 4.46933 615 ft 23 kts 245°
2026-04-22 12:35 50.46578 4.46703 617 ft 23 kts 245°
2026-04-22 12:35 50.46510 4.46469 617 ft 24 kts 245°
2026-04-22 12:35 50.46442 4.46231 620 ft 24 kts 245°
2026-04-22 12:35 50.46372 4.45988 619 ft 25 kts 245°
2026-04-22 12:36 50.46300 4.45741 617 ft 25 kts 245°
2026-04-22 12:36 50.46230 4.45504 614 ft 23 kts 245°
2026-04-22 12:36 50.46164 4.45279 624 ft 22 kts 245°
2026-04-22 12:36 50.46101 4.45059 622 ft 22 kts 246°
2026-04-22 12:37 50.46039 4.44849 612 ft 21 kts 245°
2026-04-22 12:37 50.45974 4.44623 623 ft 25 kts 245°
2026-04-22 12:37 50.45886 4.44380 612 ft 27 kts 228°
2026-04-22 12:37 50.45798 4.44203 613 ft 9 kts 232°
2026-04-22 12:38 50.45769 4.44142 617 ft 5 kts 232°
2026-04-22 12:38 50.45748 4.44100 619 ft 5 kts 232°
2026-04-22 12:38 50.45713 4.44031 612 ft 13 kts 231°
2026-04-22 12:38 50.45631 4.44014 622 ft 11 kts 128°
2026-04-22 12:39 50.45633 4.44067 616 ft 0 kts 65°
2026-04-22 12:40 50.45662 4.44169 620 ft 37 kts 66°
2026-04-22 12:40 50.45867 4.44872 619 ft 103 kts 65°
2026-04-22 12:41 50.46243 4.46151 682 ft 149 kts 65°
2026-04-22 12:41 50.46703 4.47701 1241 ft 162 kts 65°
2026-04-22 12:41 50.47222 4.49124 2230 ft 150 kts 43°
2026-04-22 12:41 50.48229 4.49656 2771 ft 167 kts 19°
2026-04-22 12:42 50.49186 4.50752 3050 ft 179 kts 54°
2026-04-22 12:42 50.49928 4.52345 3508 ft 191 kts 58°
2026-04-22 12:42 50.50702 4.54196 3644 ft 214 kts 58°
2026-04-22 12:42 50.51531 4.56160 3675 ft 218 kts 58°
2026-04-22 12:43 50.52415 4.58236 3939 ft 237 kts 58°
2026-04-22 12:43 50.53567 4.60175 4546 ft 251 kts 36°
2026-04-22 12:43 50.55246 4.61168 5174 ft 270 kts 13°
2026-04-22 12:43 50.57139 4.60974 6044 ft 274 kts 346°
2026-04-22 12:44 50.58778 4.59517 7145 ft 272 kts 319°
2026-04-22 12:44 50.59816 4.57047 8038 ft 275 kts 289°
2026-04-22 12:44 50.60095 4.54063 8822 ft 279 kts 268°
2026-04-22 12:44 50.60019 4.50993 9584 ft 283 kts 265°
2026-04-22 12:45 50.59891 4.47882 10338 ft 286 kts 265°
2026-04-22 12:45 50.59754 4.44713 10913 ft 298 kts 265°
2026-04-22 12:45 50.59612 4.41318 11108 ft 324 kts 265°
2026-04-22 12:45 50.59466 4.37662 11328 ft 347 kts 266°
2026-04-22 12:46 50.59316 4.33747 11644 ft 365 kts 266°
2026-04-22 12:46 50.59167 4.29715 12313 ft 370 kts 266°
2026-04-22 12:46 50.59018 4.25650 13081 ft 374 kts 266°
2026-04-22 12:46 50.58867 4.21541 13840 ft 377 kts 266°
2026-04-22 12:47 50.58714 4.17406 14525 ft 381 kts 266°
2026-04-22 12:47 50.58561 4.13281 15181 ft 385 kts 266°
2026-04-22 12:47 50.58402 4.09058 15833 ft 388 kts 266°
2026-04-22 12:47 50.58242 4.04797 16478 ft 392 kts 266°
2026-04-22 12:48 50.58077 4.00490 17104 ft 396 kts 266°
2026-04-22 12:48 50.57895 3.96130 17748 ft 400 kts 264°
2026-04-22 12:48 50.57139 3.91920 18356 ft 404 kts 241°
2026-04-22 12:48 50.55465 3.88407 18956 ft 403 kts 220°
2026-04-22 12:49 50.53161 3.85959 19498 ft 400 kts 201°
2026-04-22 12:49 50.50506 3.84738 20038 ft 397 kts 184°
2026-04-22 12:49 50.47763 3.84799 20573 ft 395 kts 171°
2026-04-22 12:49 50.45027 3.85303 21111 ft 397 kts 169°
2026-04-22 12:50 50.42271 3.85855 21603 ft 401 kts 169°
2026-04-22 12:50 50.39485 3.86381 22108 ft 405 kts 170°
2026-04-22 12:50 50.36672 3.86874 22630 ft 408 kts 170°
2026-04-22 12:50 50.33837 3.87353 23140 ft 412 kts 171°
2026-04-22 12:51 50.30973 3.87833 23592 ft 416 kts 171°
2026-04-22 12:51 50.28086 3.88320 24051 ft 419 kts 171°
2026-04-22 12:51 50.25178 3.88811 24420 ft 422 kts 171°
2026-04-22 12:51 50.22236 3.89308 24779 ft 426 kts 171°
2026-04-22 12:52 50.19269 3.89809 25095 ft 431 kts 171°
2026-04-22 12:52 50.16284 3.90311 25491 ft 433 kts 172°
2026-04-22 12:52 50.13274 3.90817 25859 ft 436 kts 172°
2026-04-22 12:52 50.10230 3.91330 26134 ft 442 kts 173°
2026-04-22 12:53 50.07150 3.91850 26383 ft 448 kts 173°
2026-04-22 12:53 50.04050 3.92376 26797 ft 449 kts 173°
2026-04-22 12:53 50.00970 3.92898 27096 ft 453 kts 173°
2026-04-22 12:53 49.97831 3.93428 27493 ft 454 kts 173°
2026-04-22 12:54 49.94681 3.93959 27865 ft 456 kts 174°
2026-04-22 12:54 49.91517 3.94493 28197 ft 459 kts 174°
2026-04-22 12:54 49.88325 3.95032 28466 ft 463 kts 174°
2026-04-22 12:54 49.85102 3.95574 28727 ft 466 kts 174°
2026-04-22 12:55 49.82917 3.95944 28955 ft 468 kts 174°
2026-04-22 12:55 49.78617 3.96667 29404 ft 470 kts 174°
2026-04-22 12:55 49.75351 3.97215 29711 ft 472 kts 174°
2026-04-22 12:55 49.72073 3.97767 29979 ft 475 kts 174°
2026-04-22 12:56 49.68776 3.98322 30238 ft 478 kts 174°
2026-04-22 12:56 49.65451 3.98882 30398 ft 482 kts 175°
2026-04-22 12:56 49.62090 3.99447 30459 ft 489 kts 175°
2026-04-22 12:56 49.58748 4.00010 30696 ft 490 kts 175°
2026-04-22 12:57 49.55360 4.00577 31024 ft 489 kts 176°
2026-04-22 12:57 49.51981 4.01138 31381 ft 488 kts 176°
2026-04-22 12:57 49.48609 4.01695 31723 ft 487 kts 176°
2026-04-22 12:57 49.45239 4.02252 31990 ft 488 kts 176°
2026-04-22 12:58 49.41852 4.02816 32092 ft 492 kts 177°
2026-04-22 12:58 49.38380 4.03382 32196 ft 497 kts 177°
2026-04-22 12:58 49.34942 4.03936 32511 ft 496 kts 178°
2026-04-22 12:58 49.31520 4.04459 32927 ft 492 kts 179°
2026-04-22 12:59 49.28161 4.04700 33280 ft 488 kts 183°
2026-04-22 12:59 49.24764 4.04753 33539 ft 488 kts 184°
2026-04-22 12:59 49.21363 4.04763 33760 ft 489 kts 185°
2026-04-22 12:59 49.17943 4.04774 33965 ft 491 kts 185°
2026-04-22 13:00 49.14530 4.04866 34234 ft 491 kts 184°
2026-04-22 13:00 49.11116 4.04961 34508 ft 490 kts 184°
2026-04-22 13:00 49.07712 4.05061 34793 ft 488 kts 184°
2026-04-22 13:00 49.04310 4.05156 35042 ft 488 kts 184°
2026-04-22 13:01 49.00918 4.05245 35234 ft 488 kts 184°
2026-04-22 13:01 48.94070 4.05415 35221 ft 496 kts 184°
2026-04-22 13:02 48.87119 4.05594 35223 ft 501 kts 184°
2026-04-22 13:02 48.81326 4.05747 35214 ft 502 kts 184°
2026-04-22 13:03 48.74328 4.05902 35209 ft 502 kts 184°
2026-04-22 13:03 48.67339 4.06010 35211 ft 502 kts 184°
2026-04-22 13:04 48.60390 4.06124 35206 ft 501 kts 184°
2026-04-22 13:04 48.53489 4.05604 35193 ft 490 kts 197°
2026-04-22 13:05 48.46868 4.03383 35183 ft 487 kts 199°
2026-04-22 13:05 48.40262 4.01150 35183 ft 486 kts 198°
2026-04-22 13:06 48.33640 3.99019 35177 ft 485 kts 198°
2026-04-22 13:06 48.27039 3.96920 35181 ft 484 kts 198°
2026-04-22 13:07 48.20388 3.95125 35185 ft 487 kts 194°
2026-04-22 13:07 48.13662 3.93761 35171 ft 487 kts 194°
2026-04-22 13:08 48.06952 3.92354 35168 ft 486 kts 194°
2026-04-22 13:08 48.00256 3.90893 35165 ft 486 kts 194°
2026-04-22 13:09 47.93608 3.89441 35126 ft 486 kts 194°
2026-04-22 13:09 47.86919 3.87984 35141 ft 486 kts 194°
2026-04-22 13:10 47.80224 3.86531 35143 ft 485 kts 194°
2026-04-22 13:10 47.73540 3.85083 35120 ft 485 kts 194°
2026-04-22 13:11 47.66856 3.83639 35133 ft 484 kts 194°
2026-04-22 13:11 47.60188 3.82202 35132 ft 484 kts 194°
2026-04-22 13:12 47.53526 3.80768 35126 ft 484 kts 194°
2026-04-22 13:12 47.46878 3.79334 35116 ft 482 kts 194°
2026-04-22 13:13 47.40249 3.77904 35117 ft 481 kts 194°
2026-04-22 13:13 47.33630 3.76479 35114 ft 480 kts 194°
2026-04-22 13:14 47.27069 3.75071 35107 ft 479 kts 194°
2026-04-22 13:14 47.20466 3.73658 35112 ft 478 kts 194°
2026-04-22 13:15 47.13883 3.72252 35109 ft 478 kts 194°
2026-04-22 13:15 47.07297 3.70849 35103 ft 477 kts 194°
2026-04-22 13:16 47.00723 3.69453 35105 ft 477 kts 194°
2026-04-22 13:16 46.94148 3.68059 35105 ft 477 kts 194°
2026-04-22 13:17 46.87567 3.66684 35088 ft 478 kts 193°
2026-04-22 13:17 46.80979 3.65324 35103 ft 478 kts 193°
2026-04-22 13:18 46.74415 3.63967 35099 ft 480 kts 193°
2026-04-22 13:18 46.67913 3.62070 35098 ft 472 kts 204°
2026-04-22 13:19 46.61721 3.58903 35100 ft 471 kts 205°
2026-04-22 13:19 46.55511 3.55773 35101 ft 473 kts 204°
2026-04-22 13:20 46.49261 3.52738 35076 ft 474 kts 204°
2026-04-22 13:20 46.42992 3.49730 35081 ft 474 kts 204°
2026-04-22 13:21 46.36725 3.46732 35080 ft 474 kts 204°
2026-04-22 13:21 46.30458 3.43736 35064 ft 474 kts 204°
2026-04-22 13:22 46.24188 3.40743 35077 ft 475 kts 204°
2026-04-22 13:22 46.17914 3.37757 35075 ft 475 kts 204°
2026-04-22 13:23 46.11641 3.34772 35061 ft 475 kts 204°
2026-04-22 13:23 46.05360 3.31788 35072 ft 475 kts 204°
2026-04-22 13:24 45.99110 3.28826 35072 ft 476 kts 204°
2026-04-22 13:24 45.92815 3.25849 35073 ft 476 kts 204°
2026-04-22 13:25 45.86512 3.22875 35076 ft 477 kts 204°
2026-04-22 13:25 45.80185 3.19955 35072 ft 480 kts 200°
2026-04-22 13:26 45.73483 3.18851 35088 ft 490 kts 185°
2026-04-22 13:26 45.66650 3.18797 35042 ft 491 kts 184°
2026-04-22 13:27 45.59815 3.18718 35041 ft 491 kts 185°
2026-04-22 13:27 45.52975 3.18568 35039 ft 491 kts 185°
2026-04-22 13:28 45.46143 3.18391 35043 ft 491 kts 185°
2026-04-22 13:28 45.42705 3.18301 34560 ft 498 kts 185°
2026-04-22 13:28 45.39265 3.18214 34185 ft 490 kts 185°
2026-04-22 13:28 45.35903 3.18133 33612 ft 487 kts 185°
2026-04-22 13:29 45.32529 3.18050 33125 ft 482 kts 185°
2026-04-22 13:29 45.29195 3.17969 32674 ft 476 kts 185°
2026-04-22 13:29 45.25898 3.17888 32210 ft 471 kts 185°
2026-04-22 13:29 45.22622 3.17806 31758 ft 466 kts 185°
2026-04-22 13:30 45.19395 3.17726 31309 ft 461 kts 185°
2026-04-22 13:30 45.16195 3.17645 30875 ft 457 kts 185°
2026-04-22 13:30 45.13034 3.17567 30427 ft 452 kts 184°
2026-04-22 13:30 45.09905 3.17488 29985 ft 447 kts 185°
2026-04-22 13:31 45.06813 3.17350 29508 ft 442 kts 186°
2026-04-22 13:31 45.03763 3.17168 29053 ft 436 kts 186°
2026-04-22 13:31 45.00749 3.16983 28597 ft 431 kts 186°
2026-04-22 13:31 44.97807 3.16815 28140 ft 427 kts 186°
2026-04-22 13:32 44.94854 3.16661 27704 ft 423 kts 185°
2026-04-22 13:32 44.91924 3.16584 27248 ft 420 kts 184°
2026-04-22 13:32 44.89017 3.16553 26811 ft 416 kts 184°
2026-04-22 13:32 44.86134 3.16533 26381 ft 413 kts 184°
2026-04-22 13:33 44.83274 3.16510 25945 ft 409 kts 184°
2026-04-22 13:33 44.80429 3.16479 25521 ft 406 kts 184°
2026-04-22 13:33 44.77616 3.16443 25099 ft 404 kts 184°
2026-04-22 13:33 44.74815 3.16404 24677 ft 401 kts 184°
2026-04-22 13:34 44.72030 3.16363 24256 ft 399 kts 184°
2026-04-22 13:34 44.69252 3.16322 23819 ft 398 kts 184°
2026-04-22 13:34 44.66491 3.16282 23360 ft 396 kts 184°
2026-04-22 13:34 44.63745 3.16243 22887 ft 393 kts 184°
2026-04-22 13:35 44.61024 3.16137 22446 ft 388 kts 189°
2026-04-22 13:35 44.58392 3.15481 22013 ft 381 kts 198°
2026-04-22 13:35 44.55834 3.14562 21595 ft 378 kts 199°
2026-04-22 13:35 44.53303 3.13626 21184 ft 375 kts 199°
2026-04-22 13:36 44.50784 3.12697 20770 ft 372 kts 199°
2026-04-22 13:36 44.48319 3.11799 20376 ft 370 kts 198°
2026-04-22 13:36 44.45835 3.10905 19981 ft 368 kts 198°
2026-04-22 13:36 44.43330 3.10010 19587 ft 366 kts 198°
2026-04-22 13:37 44.40901 3.09147 19189 ft 364 kts 198°
2026-04-22 13:37 44.38450 3.08280 18794 ft 363 kts 198°
2026-04-22 13:37 44.36002 3.07414 18399 ft 364 kts 198°
2026-04-22 13:37 44.33491 3.06524 17965 ft 382 kts 198°
2026-04-22 13:38 44.30873 3.05596 17507 ft 392 kts 198°
2026-04-22 13:38 44.25579 3.03737 16585 ft 388 kts 198°
2026-04-22 13:38 44.22974 3.02826 16161 ft 384 kts 198°
2026-04-22 13:39 44.20394 3.01922 15726 ft 381 kts 198°
2026-04-22 13:39 44.17838 3.01025 15307 ft 377 kts 198°
2026-04-22 13:39 44.15307 3.00137 14897 ft 373 kts 198°
2026-04-22 13:39 44.12799 2.99258 14494 ft 370 kts 199°
2026-04-22 13:40 44.10309 2.98386 14099 ft 368 kts 199°
2026-04-22 13:40 44.07834 2.97520 13715 ft 364 kts 199°
2026-04-22 13:40 44.05388 2.96664 13204 ft 361 kts 199°
2026-04-22 13:40 44.02987 2.95823 12640 ft 360 kts 199°
2026-04-22 13:41 44.00558 2.94972 12246 ft 356 kts 199°
2026-04-22 13:41 43.98203 2.94154 12158 ft 341 kts 199°
2026-04-22 13:41 43.95942 2.93368 12064 ft 329 kts 199°
2026-04-22 13:41 43.93774 2.92613 11990 ft 313 kts 199°
2026-04-22 13:42 43.91708 2.91895 11852 ft 298 kts 199°
2026-04-22 13:42 43.89717 2.91199 11496 ft 294 kts 200°
2026-04-22 13:42 43.87738 2.90502 11126 ft 293 kts 200°
2026-04-22 13:42 43.85761 2.89808 10755 ft 293 kts 199°
2026-04-22 13:43 43.83785 2.89119 10400 ft 293 kts 199°
2026-04-22 13:43 43.81809 2.88433 10050 ft 293 kts 199°
2026-04-22 13:43 43.79832 2.87746 9675 ft 293 kts 199°
2026-04-22 13:43 43.77802 2.87369 9253 ft 302 kts 178°
2026-04-22 13:44 43.75826 2.88290 9104 ft 297 kts 154°
2026-04-22 13:44 43.74055 2.89791 8743 ft 300 kts 149°
2026-04-22 13:44 43.72337 2.91427 8440 ft 299 kts 147°
2026-04-22 13:44 43.70640 2.93073 8172 ft 296 kts 147°
2026-04-22 13:45 43.68943 2.94707 7887 ft 297 kts 148°
2026-04-22 13:45 43.67242 2.96327 7562 ft 297 kts 148°
2026-04-22 13:45 43.65548 2.97926 7292 ft 293 kts 148°
2026-04-22 13:45 43.63869 2.99500 6968 ft 291 kts 148°
2026-04-22 13:46 43.62189 3.01069 6611 ft 292 kts 148°
2026-04-22 13:46 43.60511 3.02631 6343 ft 290 kts 147°
2026-04-22 13:46 43.58849 3.04177 6035 ft 285 kts 146°
2026-04-22 13:46 43.57228 3.05683 5730 ft 276 kts 146°
2026-04-22 13:47 43.55660 3.07139 5470 ft 267 kts 145°
2026-04-22 13:47 43.54169 3.08520 5238 ft 258 kts 144°
2026-04-22 13:47 43.52707 3.09874 5081 ft 250 kts 144°
2026-04-22 13:47 43.51271 3.11202 4813 ft 246 kts 144°
2026-04-22 13:48 43.49878 3.12489 4586 ft 238 kts 144°
2026-04-22 13:48 43.48501 3.13706 4301 ft 233 kts 153°
2026-04-22 13:48 43.46934 3.14096 4210 ft 231 kts 179°
2026-04-22 13:48 43.45318 3.13864 4127 ft 235 kts 185°
2026-04-22 13:49 43.43693 3.13528 3978 ft 235 kts 185°
2026-04-22 13:49 43.42640 3.13310 3920 ft 226 kts 185°
2026-04-22 13:49 43.41130 3.13001 3713 ft 214 kts 184°
2026-04-22 13:49 43.39663 3.12711 3385 ft 207 kts 183°
2026-04-22 13:50 43.38275 3.12441 3036 ft 202 kts 183°
2026-04-22 13:50 43.36896 3.12177 2666 ft 198 kts 183°
2026-04-22 13:50 43.35543 3.11950 2282 ft 193 kts 175°
2026-04-22 13:50 43.34376 3.12522 2062 ft 171 kts 135°
2026-04-22 13:51 43.33708 3.13772 2004 ft 160 kts 114°
2026-04-22 13:51 43.33481 3.15251 2001 ft 158 kts 96°
2026-04-22 13:51 43.33390 3.16762 1989 ft 159 kts 96°
2026-04-22 13:51 43.33301 3.18278 1984 ft 160 kts 96°
2026-04-22 13:52 43.33214 3.19801 1994 ft 160 kts 96°
2026-04-22 13:52 43.33125 3.21341 1866 ft 164 kts 96°
2026-04-22 13:52 43.33035 3.22903 1651 ft 163 kts 96°
2026-04-22 13:52 43.32951 3.24423 1428 ft 155 kts 96°
2026-04-22 13:53 43.32873 3.25824 1292 ft 143 kts 95°
2026-04-22 13:53 43.32797 3.27177 1165 ft 140 kts 96°
2026-04-22 13:53 43.32722 3.28518 948 ft 143 kts 94°
2026-04-22 13:53 43.32647 3.29900 728 ft 146 kts 93°
2026-04-22 13:54 43.32571 3.31289 542 ft 145 kts 94°
2026-04-22 13:54 43.32491 3.32675 338 ft 147 kts 92°
2026-04-22 13:54 43.32416 3.34091 116 ft 149 kts 92°
2026-04-22 13:54 43.32342 3.35419 56 ft 120 kts 95°
2026-04-22 13:55 43.32295 3.36040 46 ft 17 kts 105°
2026-04-22 13:55 43.32299 3.36078 48 ft 0 kts 14°
2026-04-22 13:55 43.32303 3.36057 48 ft 5 kts 277°
2026-04-22 13:55 43.32307 3.35970 49 ft 16 kts 273°
2026-04-22 13:56 43.32317 3.35775 53 ft 25 kts 275°
2026-04-22 13:56 43.32334 3.35522 54 ft 26 kts 275°
2026-04-22 13:56 43.32297 3.35337 55 ft 17 kts 195°
2026-04-22 13:56 43.32237 3.35330 58 ft 7 kts 181°
2026-04-22 13:57 43.32223 3.35329 58 ft 0 kts 182°
2026-04-22 13:57 43.32204 3.35331 57 ft 7 kts 168°
2026-04-22 13:57 43.32145 3.35344 57 ft 6 kts 184°
2026-04-22 13:57 43.32141 3.35344 57 ft 0 kts 184°